TimeEDT,TemperatureF,Dew PointF,Humidity,Sea Level PressureIn,VisibilityMPH,Wind Direction,Wind SpeedMPH,Gust SpeedMPH,PrecipitationIn,Events,Conditions,WindDirDegrees,DateUTC
12:54 AM,59.0,51.1,75,30.10,10.0,South,8.1,-,N/A,,Partly Cloudy,180,2012-10-04 04:54:00
1:54 AM,57.0,50.0,77,30.10,10.0,South,5.8,-,N/A,,Partly Cloudy,190,2012-10-04 05:54:00
2:54 AM,57.0,51.1,81,30.11,10.0,South,5.8,-,N/A,,Mostly Cloudy,170,2012-10-04 06:54:00
3:54 AM,57.0,51.1,81,30.11,10.0,SW,6.9,-,N/A,,Mostly Cloudy,230,2012-10-04 07:54:00
4:54 AM,55.9,51.1,84,30.11,10.0,SW,6.9,-,N/A,,Scattered Clouds,220,2012-10-04 08:54:00
5:54 AM,54.0,50.0,86,30.13,10.0,SSW,5.8,-,N/A,,Partly Cloudy,200,2012-10-04 09:54:00
6:54 AM,55.0,51.1,86,30.14,10.0,South,4.6,-,N/A,,Mostly Cloudy,180,2012-10-04 10:54:00
7:54 AM,57.0,52.0,83,30.14,10.0,SSW,5.8,-,N/A,,Mostly Cloudy,210,2012-10-04 11:54:00
8:54 AM,59.0,53.1,81,30.15,10.0,SSW,5.8,-,N/A,,Mostly Cloudy,210,2012-10-04 12:54:00
9:54 AM,62.1,55.0,78,30.16,10.0,SW,6.9,-,N/A,,Partly Cloudy,220,2012-10-04 13:54:00
10:54 AM,66.9,57.0,70,30.17,10.0,SW,12.7,-,N/A,,Partly Cloudy,230,2012-10-04 14:54:00
11:54 AM,70.0,57.9,65,30.17,10.0,SSW,12.7,-,N/A,,Clear,210,2012-10-04 15:54:00
12:54 PM,73.0,59.0,61,30.15,10.0,SSW,10.4,-,N/A,,Clear,210,2012-10-04 16:54:00
1:54 PM,75.0,59.0,57,30.13,10.0,SW,13.8,-,N/A,,Partly Cloudy,220,2012-10-04 17:54:00
2:54 PM,75.9,57.9,54,30.12,10.0,SSW,16.1,23.0,N/A,,Partly Cloudy,210,2012-10-04 18:54:00
3:54 PM,75.0,57.9,55,30.12,10.0,SSW,16.1,21.9,N/A,,Scattered Clouds,210,2012-10-04 19:54:00
4:54 PM,75.0,55.9,51,30.11,10.0,SW,13.8,-,N/A,,Scattered Clouds,230,2012-10-04 20:54:00
5:54 PM,75.0,55.0,50,30.10,10.0,SW,16.1,-,N/A,,Partly Cloudy,230,2012-10-04 21:54:00
6:54 PM,71.1,55.9,59,30.10,10.0,SSW,11.5,-,N/A,,Partly Cloudy,200,2012-10-04 22:54:00
7:54 PM,66.9,55.9,68,30.12,10.0,South,8.1,-,N/A,,Partly Cloudy,190,2012-10-04 23:54:00
8:54 PM,66.9,57.0,70,30.11,10.0,South,10.4,-,N/A,,Partly Cloudy,190,2012-10-05 00:54:00
9:54 PM,66.0,57.0,73,30.10,10.0,SSW,9.2,-,N/A,,Partly Cloudy,200,2012-10-05 01:54:00
10:54 PM,64.0,57.0,78,30.11,10.0,SSW,8.1,-,N/A,,Partly Cloudy,210,2012-10-05 02:54:00
11:54 PM,63.0,55.9,78,30.11,10.0,SSW,8.1,-,N/A,,Partly Cloudy,210,2012-10-05 03:54:00